Jonestown, PA

12:57 AM EST on February 26, 2017 (GMT -0500)
Muir Army Air Field

Weather History for KMUI - October, 2012

Change the Weather History Date:

Saturday, October 13, 2012

  Actual Average Record
Temperature  
Mean Temperature 40 °F -  
Max Temperature 55 °F 62 °F 77 °F (2008)
Min Temperature 26 °F 44 °F 26 °F (2012)
Degree Days  
Heating Degree Days 24    
Moisture  
Dew Point 28 °F    
Average Humidity 56    
Maximum Humidity 94    
Minimum Humidity 33    
Precipitation  
Precipitation 0.00 in - - ()
Sea Level Pressure  
Sea Level Pressure 30.44 in    
Wind  
Wind Speed 3 mph (South)    
Max Wind Speed 8 mph    
Max Gust Speed -    
Visibility 7 miles    
Events      
Averages and records for this station are not official NWS values.
T = Trace of Precipitation, MM = Missing Value Source: NWS Daily Summary

Daily Weather History Graph

Daily Weather History Graph

Search for Another Location

Airport or City:

Trip Planner

Search our weather history database for the weather conditions in past years. The results will help you decide how hot, cold, wet, or windy it might be!

Date:

Astronomy

Oct. 13, 2012 Rise Set
Actual Time 7:15 AM EDT 6:28 PM EDT
Civil Twilight 6:48 AM EDT 6:55 PM EDT
Nautical Twilight 6:16 AM EDT 7:27 PM EDT
Astronomical Twilight 5:44 AM EDT 7:59 PM EDT
Moon 5:02 AM EDT (10/13) 5:11 PM EDT (10/13)
Length of Visible Light 12h 07m
Length of Day
11h 13m
Waning Crescent, 5% of the Moon is Illuminated
Oct 13
Waning Crescent
Oct 15
New
Oct 21
First Quarter
Oct 29
Full
Nov 6
Last Quarter

Hourly Weather History & Observations

Time (EDT) Temp. Windchill Dew Point Humidity Pressure Visibility Wind Dir Wind Speed Gust Speed Precip Events Conditions
12:55 AM 36.7 °F 32.0 °F 26.2 °F 66% 30.48 in 10.0 mi North 5.8 mph - N/A   Clear
1:55 AM 35.1 °F - 26.2 °F 70% 30.48 in 10.0 mi Calm Calm - N/A   Clear
2:55 AM 33.3 °F - 26.6 °F 77% 30.47 in 10.0 mi Calm Calm - N/A   Clear
3:55 AM 29.3 °F - 26.8 °F 90% 30.47 in 10.0 mi Calm Calm - N/A   Clear
4:55 AM 30.0 °F - 25.9 °F 85% 30.50 in 10.0 mi Calm Calm - N/A   Clear
5:55 AM 27.1 °F - 25.7 °F 94% 30.52 in 10.0 mi Calm Calm - N/A   Clear
6:55 AM 26.2 °F - 24.6 °F 94% 30.53 in 10.0 mi Calm Calm - N/A   Clear
7:55 AM 28.4 °F - 26.4 °F 92% 30.53 in 10.0 mi Calm Calm - N/A   Clear
8:55 AM 34.5 °F - 29.7 °F 82% 30.54 in 10.0 mi Calm Calm - N/A   Clear
9:55 AM 40.8 °F - 24.6 °F 53% 30.55 in 10.0 mi Calm Calm - N/A   Clear
10:55 AM 45.3 °F 44.0 °F 25.3 °F 46% 30.54 in 3.0 mi Variable 3.5 mph - N/A   Haze
10:57 AM 46.4 °F 44.3 °F 26.6 °F 46% 30.54 in 2.5 mi Variable 4.6 mph - N/A   Haze
11:08 AM 46.4 °F 42.4 °F 26.6 °F 46% 30.53 in 3.0 mi SE 8.1 mph - N/A   Haze
11:30 AM 46.4 °F 45.2 °F 26.6 °F 46% 30.50 in 7.0 mi ENE 3.5 mph - N/A   Clear
11:55 AM 47.3 °F - 26.6 °F 45% 30.52 in 7.0 mi SSE 4.6 mph - N/A   Clear
12:55 PM 50.0 °F - 25.5 °F 39% 30.47 in 7.0 mi Calm Calm - N/A   Clear
1:55 PM 52.2 °F - 23.4 °F 33% 30.42 in 7.0 mi Variable 4.6 mph - N/A   Clear
2:55 PM 54.0 °F - 25.3 °F 33% 30.40 in 7.0 mi South 8.1 mph - N/A   Clear
3:55 PM 55.0 °F - 28.0 °F 35% 30.39 in 2.5 mi SSW 8.1 mph - N/A   Haze
4:02 PM 55.4 °F - 28.4 °F 36% 30.39 in 3.0 mi South 4.6 mph - N/A   Haze
4:14 PM 55.4 °F - 26.6 °F 33% 30.38 in 2.5 mi SW 8.1 mph - N/A   Haze
4:20 PM 55.4 °F - 28.4 °F 36% 30.38 in 3.0 mi SSE 6.9 mph - N/A   Haze
4:35 PM 55.4 °F - 26.6 °F 33% 30.38 in 2.5 mi South 8.1 mph - N/A   Haze
4:42 PM 55.4 °F - 28.4 °F 36% 30.37 in 3.0 mi WSW 6.9 mph - N/A   Haze
4:47 PM 53.6 °F - 26.6 °F 35% 30.37 in 2.5 mi South 3.5 mph - N/A   Haze
4:55 PM 53.6 °F - 28.0 °F 37% 30.37 in 2.5 mi South 6.9 mph - N/A   Haze
5:31 PM 53.6 °F - 28.4 °F 38% 30.36 in 3.0 mi South 5.8 mph - N/A   Haze
5:55 PM 52.9 °F - 28.9 °F 40% 30.36 in 3.0 mi South 3.5 mph - N/A   Haze
6:55 PM 45.7 °F - 33.3 °F 62% 30.34 in 10.0 mi Calm Calm - N/A   Clear
7:55 PM 42.8 °F - 34.3 °F 72% 30.35 in 10.0 mi Calm Calm - N/A   Clear
9:55 PM 41.0 °F - 34.2 °F 77% 30.33 in 9.0 mi Calm Calm - N/A   Clear
10:55 PM 41.5 °F - 33.4 °F 73% 30.31 in 10.0 mi Calm Calm - N/A   Partly Cloudy
11:55 PM 42.3 °F - 36.0 °F 78% 30.29 in 10.0 mi Calm Calm - N/A   Partly Cloudy